{"data":{"norad_id":62745,"intl_designator":"2025-014L","name":"STARLINK-32746","alt_names":[],"object_type":"PAYLOAD","status":"ACTIVE","operator":null,"country":"US","launch_date":"2025-01-21","launch_site_code":"AFETR","launch_vehicle":null,"mission":null,"orbit_class":"UNKNOWN","rcs_meters":null,"size_class":null,"mass_kg":null,"dimensions":null,"purposes":["comms"],"wikipedia_slug":null,"has_3d_model":false,"image_url":null,"decayed_at":null,"tle_current":{"epoch":"2026-05-25T04:48:08.443008Z","epoch_age_seconds":58028,"freshness":"FRESH","line1":"1 62745U 25014L   26145.20009772  .00044116  00000+0  15999-2 0  9991","line2":"2 62745  43.0021  81.8683 0001033 262.8400  97.2334 15.27645079 74969","mean_motion":15.27645079,"eccentricity":0.0001033,"inclination_deg":43.0021,"raan_deg":81.8683,"arg_perigee_deg":262.84,"mean_anomaly_deg":97.2334,"bstar":0.0015999,"rev_number":7496,"period_min":94.262732868725,"perigee_km":482.14549262529,"apogee_km":483.56297341403,"semimajor_km":6860.9912330197,"source":"CELESTRAK","updated_at":"2026-05-25T13:38:19.740210Z"}}}